Regional Weather Roundup
Issued by NWS

Home | Current Version | Previous Version | Graphics & Text | Print | Product List | Glossary On
Versions: 1 2 3 4 5 6 7 8 9 10 11 12 13 14 15 16 17 18 19 20 21 22 23 24 25 26 27
000
ASUS45 KCYS 241910
RWRWY

WYOMING REGIONAL WEATHER ROUNDUP
NATIONAL WEATHER SERVICE CHEYENNE WY
100 PM MDT WED MAY 24 2017

NOTE:  "FAIR" INDICATES FEW OR NO CLOUDS BELOW 12,000 FEET
WITH NO SIGNIFICANT WEATHER AND/OR OBSTRUCTIONS TO VISIBILITY.

WYZ001-242000-
YELLOWSTONE NATIONAL PARK

CITY           SKY/WX    TMP DP  RH WIND       PRES   REMARKS
LK YELLOWSTONE   N/A     61  36  39 W8G21     29.70F
W YELLOWSTONE  NOT AVBL

$$
WYZ002>013-054>058-071-098>099-242000-
NORTHERN WYOMING

CITY           SKY/WX    TMP DP  RH WIND       PRES   REMARKS
JACKSON        MOSUNNY   70  30  23 SW23G48   29.68F
CODY           FAIR      77  34  21 W13G28    29.47F
GREYBULL       FAIR      81  33  17 SE20      29.41F
WORLAND        FAIR      81  39  22 VRB7      29.45F
SHERIDAN       FAIR      83  40  21 CALM      29.41F
BUFFALO        FAIR      81  37  20 VRB5      29.48F
GILLETTE       FAIR      77  49  37 S14       29.48F
HULETT         FAIR      73  41  31 SW12G21   29.51F
NEWCASTLE      FAIR      68  36  30 SE12G20   29.57F

$$
WYZ014>020-022>026-101>103-242000-
CENTRAL WYOMING

CITY           SKY/WX    TMP DP  RH WIND       PRES   REMARKS
BIG PINEY      FAIR      70  36  28 W25G39    29.79F
PINEDALE       MOCLDY    68  34  28 W22G31    29.79F
DUBOIS         FAIR      64  32  29 W29G43    29.68
LANDER         PTSUNNY   77  38  24 W18G29    29.58F
RIVERTON       FAIR      78  35  21 W25G37    29.58F
CASPER         FAIR      78  36  21 W28G39    29.59F
DOUGLAS        FAIR      78  39  24 W17       29.59F

$$
WYZ021-027>030-104>119-242000-
SOUTHERN WYOMING

CITY           SKY/WX    TMP DP  RH WIND       PRES   REMARKS
EVANSTON       FAIR      70  34  26 W26G37    29.89
KEMMERER         N/A     68  34  28 W28G39    29.85F
FORT BRIDGER   MOCLDY    73  31  21 W26G40    29.89F
ROCK SPRINGS   PTSUNNY   71  30  21 W31G38    29.80F
DIXON            N/A     72  34  24 SW16G24   29.86
RAWLINS        FAIR      73  32  22 W24G36    29.77F
LARAMIE        FAIR      70  31  23 W32G45    29.78F
CHEYENNE       FAIR      76  34  21 W22G30    29.72F
TORRINGTON     FAIR      75  45  34 SE9       29.58F
PINE BLUFFS    MOCLDY    72  41  33 S20G26    29.67F

$$




USA.gov is the U.S. government's official web portal to all federal, state and local government web resources and services.